sat.trackr.live / text

‹ back to catalog

STARLINK-2545

NORAD 48289 · 2021-036P

PAYLOAD ACTIVE UNKNOWN

§ Identity

Operator
Country
US
Launch date
2021-04-29
Launch site
AFETR
Launch vehicle
Mass (kg)
RCS (m²)

Purposes: comms

External: N2YO · Heavens-Above · Gunter

§ Orbital elements

Epoch: 2026-09-19T11:07:38.233344Z

Period
94.01 min
Inclination
53.1589°
Eccentricity
0.0001386
Mean motion
15.31706145 rev/d
Perigee alt
469.8 km
Apogee alt
471.7 km
Semi-major
6,848.9 km
B*
6.0902e-5
RAAN
253.8996°
Arg perigee
106.2690°
Mean anomaly
253.8464°
Rev number
29,809

§ Raw data

STARLINK-25451 48289U 21036P   26262.46363696  .00001525  00000+0  60902-4 0  99972 48289  53.1589 253.8996 0001386 106.2690 253.8464 15.31706145298091

JSON: /api/v1/satellites/48289 · /tle

For live sub-satellite position, see the globe view (requires WebGL).

§ Visibility from observer

Set your observer location to see the next 7 days of passes ≥ 10°. The values pass through the URL so the page stays shareable.

No JS? Fill the form by hand. The geolocation button needs JavaScript.